Location: *
(47.6569°N, 7.4256°E)
Time: 13:41:48
(UTC+00:00)

Cosmos 2315 Rocket - Pass Details

Date: 14 December 2019
Orbit: 965 x 1003 km, 82.9° (Epoch: 18 January)

Event Time Altitude Azimuth Distance (km) Brightness Sun altitude
Rises 18:09:36 0° 353° (N) 3,724 7.0 -24.3°
Reaches altitude 10° 18:12:12 10° 357° (N) 2,766 6.3 -24.7°
Maximum altitude 18:18:29 62° 77° (ENE) 1,105 3.9 -25.8°
Enters shadow 18:18:44 61° 89° (E) 1,109 3.9 -25.8°
Exits shadow 18:26:37 - 161° (SSE) 3,445 6.7 -27.1°
Sets 18:27:11 0° 162° (SSE) 3,660 6.9 -27.2°
